Location: Shannon
(40.5500°S, 175.4167°E)
Time: 21:59:39
(UTC+00:00)

Cosmos 2237 Rocket - Pass Details

Date: 17 November 2025
Orbit: 835 x 847 km, 71.0° (Epoch: 06 December)

Event Time Altitude Azimuth Distance (km) Brightness Sun altitude
Rises 12:41:48 0° 199° (SSW) 3,443 6.2 -29.7°
Reaches altitude 10° 12:44:23 10° 193° (SSW) 2,502 5.4 -29.6°
Maximum altitude 12:49:55 47° 119° (ESE) 1,119 3.0 -29.4°
Enters shadow 12:51:02 42° 86° (E) 1,203 3.0 -29.3°
